Location: Bismarck
(46.7731°N, 100.8200°W)
Time: 07:38:46
(UTC-05:00)

Amateur Radio Satellites - All Passes

Search period start: 20 August 2014 07:08
Search period end: 21 August 2014 07:08
Location: Bismarck, 46.7731°N, 100.8200°W

Satellite Date Start Highest point End Downlink Frequencies (MHz)
Time Altitude Azimuth
STRAND 1 20 Aug 07:24:04 07:29:09 74° 73° (ENE) 07:34:16 ?
Uosat F 20 Aug 07:51:39 07:54:47 17° 302° (WNW) 07:57:53 435.120 FM
SO-67 20 Aug 08:03:53 08:06:12 17° 92° (E) 08:08:30 435.3500 MHz FM
AO-7 20 Aug 08:07:20 08:14:29 34° 306° (NW) 08:21:36 29.400 - 29.500 MHz
SO-50 20 Aug 08:16:56 08:21:25 78° 308° (NW) 08:26:03 436.795 FM
Saudisat 1A 20 Aug 08:26:54 08:27:45 10° 19° (NNE) 08:28:37 436.775 MHz
KITSAT 1 20 Aug 08:31:27 08:37:23 21° 15° (NNE) 08:43:18 435.175 FM
Hamsat 20 Aug 08:36:15 08:40:13 34° 292° (WNW) 08:44:09 145.90 MHz
JAS-2 20 Aug 08:37:53 08:42:57 53° 290° (WNW) 08:48:00 435.800 - 435.900 CW/SSB, 435.910 FM
STRAND 1 20 Aug 09:05:51 09:08:54 16° 271° (W) 09:11:58 ?
HO-68 20 Aug 09:09:20 09:12:18 13° 84° (E) 09:15:14 435.675 MHz FM
SO-67 20 Aug 09:36:13 09:39:23 33° 289° (WNW) 09:42:32 435.3500 MHz FM
UOSAT-12 20 Aug 09:41:05 09:45:39 64° 123° (ESE) 09:50:20 437.025 FM, 437.400 FM
RS-15 20 Aug 09:47:58 09:57:41 38° 108° (ESE) 10:07:15 29.354 - 29.394 USB, Beacon 29.352 USB
SO-50 20 Aug 09:59:37 10:02:45 18° 330° (NNW) 10:05:57 436.795 FM
AO-7 20 Aug 10:04:23 10:04:44 10° 331° (NNW) 10:05:04 29.400 - 29.500 MHz
Saudisat 1A 20 Aug 10:04:42 10:08:42 32° 42° (NE) 10:12:41 436.775 MHz
KITSAT 1 20 Aug 10:27:20 10:35:05 46° 43° (NE) 10:42:47 435.175 FM
HO-68 20 Aug 10:54:09 11:01:19 69° 104° (ESE) 11:08:25 435.675 MHz FM
UKube-1 20 Aug 11:05:54 11:10:12 58° 101° (ESE) 11:14:28 145.840 MHz, 145.915 MHz
FUNcube-1 20 Aug 11:18:35 11:22:00 22° 93° (E) 11:25:28 145.950 - 145.970 MHz USB
UOSAT-12 20 Aug 11:22:20 11:26:13 25° 323° (NW) 11:30:10 437.025 FM, 437.400 FM
Oscar 11 20 Aug 11:24:17 11:28:37 58° 101° (E) 11:32:55 145.825 FM, Beacon 2401.500 USB
AO-40 20 Aug 11:25:25 07:08:16 26° 221° (SW) 12:09:41 Beacon 2401.320
Saudisat 1A 20 Aug 11:44:15 11:48:22 39° 241° (WSW) 11:52:27 436.775 MHz
RS-15 20 Aug 11:58:14 12:09:16 72° 312° (NW) 12:20:15 29.354 - 29.394 USB, Beacon 29.352 USB
KITSAT 1 20 Aug 12:22:53 12:30:41 54° 245° (WSW) 12:38:26 435.175 FM
HO-68 20 Aug 12:42:36 12:48:30 29° 304° (NW) 12:54:23 435.675 MHz FM
UKube-1 20 Aug 12:43:10 12:45:59 17° 299° (WNW) 12:48:47 145.840 MHz, 145.915 MHz
JAS-1B 20 Aug 12:53:27 12:59:52 20° 47° (NE) 13:05:57 435.800 - 435.900 CW/SSB
FUNcube-1 20 Aug 12:54:26 12:58:34 42° 290° (WNW) 13:02:47 145.950 - 145.970 MHz USB
Oscar 11 20 Aug 13:01:33 13:04:23 17° 299° (WNW) 13:07:13 145.825 FM, Beacon 2401.500 USB
UOSAT-12 20 Aug 13:07:39 13:08:03 10° 347° (NNW) 13:08:27 437.025 FM, 437.400 FM
Oscar 19 20 Aug 13:12:29 13:16:32 24° 61° (ENE) 13:20:37 437.125 CW, 437.150 USB
ITAMSAT 1 20 Aug 13:20:30 13:23:12 15° 55° (NE) 13:25:55 435.822 SSB
SO-50 20 Aug 13:26:13 13:28:04 12° 20° (NNE) 13:29:55 436.795 FM
AO-Echo 20 Aug 13:32:10 13:35:36 18° 60° (ENE) 13:38:58 ?
Uribyol 2 20 Aug 13:32:28 13:35:59 19° 58° (ENE) 13:39:30 436.500 FM
Oscar 16 20 Aug 13:44:17 13:49:09 44° 68° (ENE) 13:54:03 437.025 USB, Beacon 2401.1428
AO-27 20 Aug 13:44:52 13:48:50 23° 61° (ENE) 13:52:49 436.795 MHz FM
TMSAT-1 20 Aug 14:09:04 14:11:32 13° 54° (NE) 14:14:01 436.925 FM
RS-15 20 Aug 14:14:10 14:23:51 34° 342° (NNW) 14:33:36 29.354 - 29.394 USB, Beacon 29.352 USB
JAS-1B 20 Aug 14:39:03 14:48:47 64° 68° (ENE) 14:57:56 435.800 - 435.900 CW/SSB
Gurwin Techsat 1B 20 Aug 14:46:57 14:51:41 34° 65° (ENE) 14:56:27 435.225 FM
Oscar 19 20 Aug 14:50:32 14:55:33 53° 260° (W) 15:00:38 437.125 CW, 437.150 USB
ITAMSAT 1 20 Aug 14:56:45 15:01:57 85° 74° (ENE) 15:07:09 435.822 SSB
SO-50 20 Aug 15:05:36 15:10:00 36° 43° (NE) 15:14:26 436.795 FM
AO-Echo 20 Aug 15:08:41 15:13:52 72° 257° (WSW) 15:18:55 ?
Uribyol 2 20 Aug 15:09:47 15:14:56 71° 257° (WSW) 15:20:06 436.500 FM
AO-27 20 Aug 15:22:52 15:27:59 57° 259° (W) 15:33:06 436.795 MHz FM
Oscar 16 20 Aug 15:24:22 15:28:41 27° 266° (W) 15:33:02 437.025 USB, Beacon 2401.1428
AO-7 20 Aug 15:25:05 15:32:04 31° 52° (NE) 15:39:02 29.400 - 29.500 MHz
TMSAT-1 20 Aug 15:45:19 15:50:36 77° 73° (ENE) 15:55:55 436.925 FM
MaSat-1 20 Aug 15:47:38 15:50:41 17° 101° (E) 15:53:53 437.345 MHz
Uosat F 20 Aug 15:50:37 15:54:23 22° 60° (ENE) 15:58:09 435.120 FM
ISS 20 Aug 16:02:07 16:05:16 42° 145° (SE) 16:08:27 145.800 FM
Gurwin Techsat 1B 20 Aug 16:26:44 16:31:37 37° 263° (W) 16:36:32 435.225 FM
UOSAT-12 20 Aug 16:28:25 16:32:20 25° 36° (NE) 16:36:13 437.025 FM, 437.400 FM
JAS-1B 20 Aug 16:30:29 16:39:33 40° 266° (W) 16:48:17 435.800 - 435.900 CW/SSB
RS-15 20 Aug 16:30:33 16:40:12 34° 17° (NNE) 16:50:02 29.354 - 29.394 USB, Beacon 29.352 USB
ITAMSAT 1 20 Aug 16:39:35 16:42:07 14° 272° (W) 16:44:41 435.822 SSB
SO-50 20 Aug 16:46:10 16:50:37 40° 241° (WSW) 16:55:07 436.795 FM
JAS-2 20 Aug 17:09:55 17:13:51 17° 57° (ENE) 17:17:32 435.800 - 435.900 CW/SSB, 435.910 FM
AO-7 20 Aug 17:15:50 17:24:11 75° 253° (WSW) 17:32:34 29.400 - 29.500 MHz
MaSat-1 20 Aug 17:22:19 17:27:08 74° 301° (WNW) 17:32:21 437.345 MHz
Uosat F 20 Aug 17:27:51 17:32:47 58° 259° (WSW) 17:37:45 435.120 FM
TMSAT-1 20 Aug 17:28:01 17:31:09 16° 272° (W) 17:34:17 436.925 FM
ISS 20 Aug 17:38:47 17:42:01 47° 344° (NNW) 17:45:16 145.800 FM
Hamsat 20 Aug 17:56:46 18:00:22 27° 66° (ENE) 18:04:02 145.90 MHz
OPAL 20 Aug 18:06:24 18:11:33 59° 104° (ESE) 18:16:42 ?
UOSAT-12 20 Aug 18:08:12 18:12:56 68° 237° (WSW) 18:17:34 437.025 FM, 437.400 FM
SO-67 20 Aug 18:41:57 18:42:25 10° 61° (ENE) 18:42:53 435.3500 MHz FM
RS-15 20 Aug 18:43:55 18:54:56 69° 47° (NE) 19:06:18 29.354 - 29.394 USB, Beacon 29.352 USB
JAS-2 20 Aug 18:51:33 18:58:18 86° 74° (ENE) 19:04:15 435.800 - 435.900 CW/SSB, 435.910 FM
MaSat-1 20 Aug 19:02:00 19:05:14 17° 322° (NW) 19:08:33 437.345 MHz
Sapphire 20 Aug 19:02:03 19:03:05 11° 101° (E) 19:04:07 437.095 MHz 1200 baud AX-25 AFSK
AO-7 20 Aug 19:13:30 19:18:22 17° 274° (W) 19:23:16 29.400 - 29.500 MHz
ISS 20 Aug 19:16:06 19:19:12 34° 4° (N) 19:22:18 145.800 FM
PCSat 20 Aug 19:29:22 19:33:20 21° 107° (ESE) 19:37:19 145.825 MHz
Hamsat 20 Aug 19:32:24 19:36:15 32° 264° (W) 19:40:09 145.90 MHz
STRAND 1 20 Aug 19:32:39 19:36:20 20° 91° (E) 19:39:59 ?
HO-68 20 Aug 19:41:39 19:45:54 17° 47° (NE) 19:50:09 435.675 MHz FM
OPAL 20 Aug 19:46:02 19:50:03 23° 302° (WNW) 19:54:05 ?
SO-67 20 Aug 20:11:31 20:14:57 66° 259° (W) 20:18:26 435.3500 MHz FM
JAS-2 20 Aug 20:39:49 20:43:57 17° 270° (W) 20:47:49 435.800 - 435.900 CW/SSB, 435.910 FM
Sapphire 20 Aug 20:40:08 20:45:30 71° 119° (ESE) 20:50:55 437.095 MHz 1200 baud AX-25 AFSK
ISS 20 Aug 20:52:55 20:56:16 74° 23° (NNE) 20:59:36 145.800 FM
RS-15 20 Aug 20:56:46 21:06:43 41° 251° (WSW) 21:17:03 29.354 - 29.394 USB, Beacon 29.352 USB
PCSat 20 Aug 21:10:52 21:16:15 67° 306° (NW) 21:21:41 145.825 MHz
STRAND 1 20 Aug 21:10:54 21:15:55 59° 289° (WNW) 21:20:55 ?
HO-68 20 Aug 21:25:19 21:32:23 69° 68° (ENE) 21:39:29 435.675 MHz FM
UKube-1 20 Aug 22:04:01 22:08:21 75° 74° (ENE) 22:12:43 145.840 MHz, 145.915 MHz
FUNcube-1 20 Aug 22:18:17 22:21:37 24° 65° (ENE) 22:24:59 145.950 - 145.970 MHz USB
Oscar 10/S400 20 Aug 22:21:28 22:43:41 51° 165° (SSE) 06:15:55 145.825 - 145.975 CW/USB, Beacon 145.810 USB
Oscar 11 20 Aug 22:21:56 22:26:13 65° 73° (ENE) 22:30:33 145.825 FM, Beacon 2401.500 USB
Sapphire 20 Aug 22:24:58 22:29:26 26° 320° (NW) 22:33:57 437.095 MHz 1200 baud AX-25 AFSK
ISS 20 Aug 22:30:07 22:32:43 21° 222° (SW) 22:35:19 145.800 FM
PCSat 20 Aug 22:57:08 23:00:43 18° 328° (NNW) 23:04:19 145.825 MHz
HO-68 20 Aug 23:14:52 23:20:39 26° 268° (W) 23:26:29 435.675 MHz FM
UKube-1 20 Aug 23:43:20 23:45:05 12° 271° (W) 23:46:51 145.840 MHz, 145.915 MHz
FUNcube-1 20 Aug 23:54:05 23:57:53 34° 263° (W) 00:01:44 145.950 - 145.970 MHz USB
Oscar 11 21 Aug 00:00:40 00:02:52 14° 271° (W) 00:05:05 145.825 FM, Beacon 2401.500 USB
MaSat-1 21 Aug 00:01:41 00:04:20 14° 35° (NE) 00:06:52 437.345 MHz
AO-40 21 Aug 00:07:29 05:16:11 33° 160° (SSE) 07:00:24 Beacon 2401.320
KITSAT 1 21 Aug 01:02:34 01:07:14 17° 100° (E) 01:11:54 435.175 FM
MaSat-1 21 Aug 01:37:37 01:42:36 60° 57° (ENE) 01:47:02 437.345 MHz
Saudisat 1A 21 Aug 01:53:34 01:57:15 26° 115° (ESE) 02:00:57 436.775 MHz
Oscar 16 21 Aug 01:54:59 01:57:03 12° 87° (E) 01:59:07 437.025 USB, Beacon 2401.1428
JAS-1B 21 Aug 02:26:31 02:29:17 12° 77° (ENE) 02:31:54 435.800 - 435.900 CW/SSB
PCSat 21 Aug 02:30:45 02:32:47 12° 22° (NNE) 02:34:49 145.825 MHz
KITSAT 1 21 Aug 02:53:13 03:01:17 75° 120° (ESE) 03:09:22 435.175 FM
Oscar 19 21 Aug 02:59:06 03:04:05 44° 98° (E) 03:09:02 437.125 CW, 437.150 USB
ITAMSAT 1 21 Aug 03:07:20 03:11:31 24° 93° (E) 03:15:40 435.822 SSB
AO-Echo 21 Aug 03:13:36 03:17:42 28° 95° (E) 03:21:43 ?
MaSat-1 21 Aug 03:15:49 03:19:09 19° 258° (WSW) 03:22:14 437.345 MHz
Uribyol 2 21 Aug 03:19:49 03:24:29 33° 96° (E) 03:29:07 436.500 FM
Oscar 16 21 Aug 03:31:56 03:37:10 87° 105° (ESE) 03:42:23 437.025 USB, Beacon 2401.1428
Saudisat 1A 21 Aug 03:32:25 03:36:39 44° 314° (NW) 03:40:55 436.775 MHz
AO-27 21 Aug 03:32:59 03:37:53 41° 98° (E) 03:42:45 436.795 MHz FM
Sapphire 21 Aug 03:42:26 03:46:46 24° 38° (NE) 03:51:05 437.095 MHz 1200 baud AX-25 AFSK
OPAL 21 Aug 03:47:08 03:50:58 23° 58° (ENE) 03:54:51 ?
TMSAT-1 21 Aug 03:58:49 04:03:08 25° 93° (E) 04:07:24 436.925 FM
PCSat 21 Aug 04:12:52 04:17:53 36° 46° (NE) 04:22:52 145.825 MHz
JAS-1B 21 Aug 04:13:59 04:21:49 70° 102° (ESE) 04:28:16 435.800 - 435.900 CW/SSB
Oscar 19 21 Aug 04:38:50 04:43:14 29° 297° (WNW) 04:47:37 437.125 CW, 437.150 USB
Gurwin Techsat 1B 21 Aug 04:39:22 04:44:42 72° 103° (ESE) 04:49:59 435.225 FM
ITAMSAT 1 21 Aug 04:46:17 04:51:16 49° 291° (WNW) 04:56:14 435.822 SSB
KITSAT 1 21 Aug 04:50:02 04:57:24 37° 324° (NW) 05:04:47 435.175 FM
AO-Echo 21 Aug 04:52:13 04:56:34 36° 293° (WNW) 05:00:50 ?
Uribyol 2 21 Aug 04:59:16 05:03:59 37° 294° (WNW) 05:08:42 436.500 FM
Oscar 16 21 Aug 05:12:47 05:15:50 16° 303° (WNW) 05:18:52 437.025 USB, Beacon 2401.1428
AO-27 21 Aug 05:12:47 05:17:16 30° 296° (WNW) 05:21:43 436.795 MHz FM
AO-7 21 Aug 05:14:36 05:21:49 32° 95° (E) 05:28:58 29.400 - 29.500 MHz
Saudisat 1A 21 Aug 05:15:25 05:17:21 13° 336° (NNW) 05:19:17 436.775 MHz
OPAL 21 Aug 05:24:32 05:29:28 58° 257° (WSW) 05:34:29 ?
Sapphire 21 Aug 05:25:23 05:30:50 80° 239° (WSW) 05:36:15 437.095 MHz 1200 baud AX-25 AFSK
Uosat F 21 Aug 05:32:45 05:37:19 34° 97° (E) 05:41:51 435.120 FM
TMSAT-1 21 Aug 05:38:13 05:43:19 50° 291° (WNW) 05:48:24 436.925 FM
PCSat 21 Aug 05:56:17 06:01:25 44° 246° (WSW) 06:06:30 145.825 MHz
JAS-1B 21 Aug 06:05:14 06:11:37 28° 307° (NW) 06:17:11 435.800 - 435.900 CW/SSB
Gurwin Techsat 1B 21 Aug 06:20:27 06:24:07 19° 302° (WNW) 06:27:46 435.225 FM
KITSAT 1 21 Aug 06:49:54 06:55:31 20° 352° (N) 07:01:08 435.175 FM
STRAND 1 21 Aug 06:51:06 06:55:48 39° 67° (ENE) 07:00:31 ?
